Weather in Vinogradnoye

Russia / Republic of Crimea     45°17′35″N   35°50′45″E
temp.,
°C
wind,
m/s
gust,
m/s
humid.,
%
clouds,
%
prec.,
mm/h
press.,
hPa
HPBL,
m
27 february, sat
sat2700:00+7ssw711900 0.0 1023226
03:00+7ssw610900 0.0 1022200
06:00+7ssw59900 0.0 1020182
09:00+9sw68790 0.0 1020269
12:00+12sw67630 0.0 1019625
15:00+12sw57620 0.0 1018662
18:00+9nw357751 0.0 1017330
21:00+7n469274 0.1 1017332
28 february, sun
sun2800:00+5nnw71090100 1.3 1018473
03:00+5nnw6885100 1.5 1018638
06:00+4nnw6980100 0.1 1019587
09:00+4nnw797998 0.1 1020795
12:00+5nnw787790 0.1 1021870
15:00+5nnw687892 0.3 1021773
18:00+4nw578970 0.1 1021606
21:00+4nw477783 0.3 1022723
1 march, mon
mon100:00+4nw468093 0.3 1023609
03:00+3wnw478895 0.4 1023371
06:00+2nw2488100 0.1 1024256
09:00+3wnw3483100 0.1 1025480
12:00+4nw337598 0.2 1026609
15:00+5nnw226699 0.3 1026848
18:00+4nne347298 0.0 1027532
21:00+2nne228393 0.0 102836
2 march, tue
tue200:00+1nnw33831 0.0 102959
03:00+1nnw22848 0.0 102930
06:00+1n348331 0.1 102966
09:00+3nw346839 0.1 1030779
12:00+5nw565755 0.0 10291098
15:00+6wnw585540 0.0 10281170
18:00+5w586161 0.0 1026902
21:00+3w5107281 0.0 1026576
3 march, wed
wed300:00+2w5127977 0.0 1025457
03:00+5w6118088 0.0 1024435
06:00+4nw588997 0.1 1024421
09:00+4nw587473 0.1 1025691
12:00+7nw68640 0.0 1025766
15:00+6nnw697625 0.0 1025770
18:00+6nnw487144 0.1 1025648
21:00+6n586767 0.1 1027474